TINTIN A (43216 NORAD) Tracking and Keplerian Element Data

This shows tracking and keplerian element data for the satellite.

Feedback or suggestion? Click here.




ElementValue
Catalog43216
NameTINTIN A
Epoch Orbit2201
Epoch Day198.60016742
Epoch Year2018
RAAN205.6029
Inclination97.454
Eccentricity0.0015778
Argument of Perigee123.9235
Mean Anonmoly236.3502
Mean Motion15.19625332
Decay Rate3.022E-05
L11 43216U 18020B 18198.60016742 .00003022 00000-0 14463-3 0 9998
L22 43216 97.4540 205.6029 0015778 123.9235 236.3502 15.19625332 22017

Live tracking and technical data element details for TINTIN A (NORAD 43216). TINTIN A can be tracked NOW for your location showing map with azimuth and elevation plus other details from your city location.

Track the satellite on the map from your city or location and see movement details for azimuth, elevation, latitude, longitude, range, height, and movement on the map or in text.







IsCatalogInMostPopularTable: catalog: 43216, numindb: 125
Update: records affected: 1



GetName: 43216 TINTIN A

Hit Count: updated at: Wed, 18 Jul 2018 20:30:56 GMT